Regional Weather Roundup
Issued by NWS Pendleton, OR

Home | Current Version | Previous Version | Text Only | Print | Product List | Glossary On
Versions: 1 2 3 4 5 6 7 8 9 10 11 12 13 14 15 16 17 18 19 20 21 22 23 24 25 26 27 28 29 30 31 32 33 34 35 36 37 38 39 40 41 42 43 44 45 46 47 48 49 50
000
ASUS46 KPDT 280610
RWRPDT
PENDLETON REGIONAL WEATHER ROUNDUP
NATIONAL WEATHER SERVICE PENDLETON OREGON
1000 PM PST MON FEB 27 2017

NOTE: FAIR INDICATES FEW OR NO CLOUDS BELOW 12,000 FEET WITH NO
SIGNIFICANT WEATHER AND/OR OBSTRUCTIONS TO VISIBILITY.

# INDICATES UNOFFICIAL STATION AND DATA

WAZ520-280710-
EAST SLOPES OF WASHINGTON CASCADES

CITY            SKY/WX      TMP DP  RH  WIND    PRES   REMARKS
#CLE ELUM HS    N/A         27  25  92  CALM    29.63R
#CLE ELUM LAKE  N/A         23  22  96  CALM    29.71R
#GLENWOOD       N/A         33  30  89  S3      29.76R
#MANASTASH CYN  N/A         27  23  85  CALM    29.63R
#NELSON 3SW     N/A         24  23  96  CALM    29.94R
#NILE           N/A         29  27  92  CALM    28.97R
#TEANAWAY 4NE   N/A         28  27  96  CALM    N/A
#TROUT LAKE 1NE N/A         31  29  92  CALM    29.76S
#TROUT LAKE 1E  N/A         32  29  89  CALM    29.70R
$$

WAZ521-280710-
SIMCOE HIGHLANDS

CITY            SKY/WX      TMP DP  RH  WIND    PRES   REMARKS
#BICKLETON HS   N/A         28  25  88  SW23    29.28S WCI 14
#CENTERVILLE 1SWN/A         31  28  88  W3      29.74R
#GOLDENDALE 1NE N/A         33  27  78  SW1     N/A
#GOLDENDALE 4W  N/A         32  18  56  SW6     29.75R
#GOODNOE HILLS  N/A         33  29  85  W13     29.63R WCI 24
#LYLE 6NE       N/A         33  32  96  SW7     29.74S
#PITT 4SE       N/A         29  28  96  SW8     29.80S
$$

WAZ026-280710-
KITTITAS VALLEY

CITY            SKY/WX      TMP DP  RH  WIND    PRES   REMARKS
ELLENSBURG AP   CLOUDY      26  23  88  CALM    29.66R FOG
#ELLENSBURG CWU N/A         27  26  96  CALM    29.67S
#ELLENSBURG 3NE N/A         26  25  96  CALM    27.76R
#KITTITAS 4N    N/A         26  22  85  CALM    29.69R
#KITTITAS 3S    N/A         27  26  96  CALM    29.73R
#THORP 6N       N/A         27  25  92  W13     29.75R WCI 16
$$

WAZ027-280710-
YAKIMA VALLEY

CITY            SKY/WX      TMP DP  RH  WIND    PRES   REMARKS
SUNNYSIDE AP    PTCLDY      29  26  88  NE5     29.69S
6HR MIN TEMP:   28; 6HR MAX TEMP:   40;

YAKIMA AIRPORT  PTCLDY      28  24  85  NW6     29.68S
6HR MIN TEMP:   28; 6HR MAX TEMP:   41;

YAKIMA-VAGABOND MOCLDY      27  24  88  E7      29.65R
6HR MIN TEMP:   26; 6HR MAX TEMP:   37; 6HR PCP:  0.01;

#DONALD 2NE     N/A         33  15  47  N2      28.53R
#GRANDVIEW      N/A         33  23  66  SW1     29.73S
#MABTON         N/A         38  30  73  SW3     29.68S
#MOXEE 2E       N/A         28   0  29  CALM    29.71R
#NACHES 2SW     N/A         29  27  92  CALM    29.61S
#TERRACE HTS    N/A         29  26  88  CALM    29.69R
#TOPPENISH      N/A         33  28  82  CALM    29.63R
#WEST VALLEY    N/A         29  26  88  CALM    29.71R
#W YAKIMA       N/A         30  27  88  CALM    29.73R
#WHITE SWAN 5E  N/A         37  29  72  W6      29.72R
#WILEY CITY 3W  N/A         26  19  74  CALM    29.64R
$$

WAZ028-280710-
LOWER COLUMBIA BASIN...WASHINGTON

CITY            SKY/WX      TMP DP  RH  WIND    PRES   REMARKS
PASCO           CLOUDY      39  29  67  SW13    29.71R WCI 31
6HR MIN TEMP:   39; 6HR MAX TEMP:   41;

PROSSER AWOS    N/A         34  32  92  CALM    29.73R
RICHLAND AWOS   PTCLDY      40  32  73  SW17G24 29.70S WCI 31
#BENTON CITY    N/A         34  28  78  CALM    29.63R
#CONNELL 5N     N/A         31  30  96  SW2     29.70S
#CONNELL 5NW    N/A         33  30  89  SW7     29.67R
#ELTOPIA 6NW    N/A         35  30  82  SW1     28.65S
#KAHLOTUS       N/A         34  31  89  W22     29.70R WCI 22
#KENNEWICK 3S   N/A         36  32  85  W8      29.72R
#PATERSON       N/A         38  33  82  NW7     29.73S
#SAGEMOOR 2W    N/A         35  30  82  SW12    29.55S WCI 27
#TOUCHET 2S     N/A         39  32  76  SW16    29.71S WCI 30
#WEST PASCO     N/A         40  32  73  S7      29.67R
$$

WAZ029-280710-
FOOTHILLS OF THE BLUES...WASHINGTON

CITY            SKY/WX      TMP DP  RH  WIND    PRES   REMARKS
WALLA WALLA AP  CLOUDY      37  30  75  SW9     29.71S
6HR MIN TEMP:   35; 6HR MAX TEMP:   38; 6HR PCP:  0.01;

#CLYDE 6NW      N/A         35  30  82  SW8     29.71S
#DAYTON SCHOOL  N/A         35  25  66  SW13    29.72R WCI 26
#LOWDEN 2SE     N/A         39  32  76  W7      29.70S
#PLEASANT VIEW 1N/A         32  30  92  S13     29.75S WCI 22
#PRESCOTT       N/A         37  33  85  S1      29.72F
#WHITMAN COLLEGEN/A         38  31  76  S5      29.80S
#WAITSBURG 5S   N/A         34  31  89  S10     29.84S
#WALLA WALLA 5E N/A         36  31  82  SW15    N/A    WCI 27
#WALLA WALLA U  N/A         40  34  79  CALM    29.75S
#WHITMAN MISSIONN/A         40  33  76  SW6     29.76S
$$

WAZ030-280710-
BLUE MOUNTAINS...WASHINGTON

CITY            SKY/WX      TMP DP  RH  WIND    PRES   REMARKS
#DIXIE 5SE      N/A         29  27  92  SW24G38 29.56F WCI 15
$$

ORZ009-041-WAZ024-280710-
COLUMBIA RIVER GORGE

CITY            SKY/WX      TMP DP  RH  WIND    PRES   REMARKS
HOOD RIVER AP   MOCLDY      34  34  100 CALM    29.75S
THE DALLES AP   MOCLDY      35  33  92  S3      29.76S
6HR MIN TEMP:   35; 6HR MAX TEMP:   44; 6HR PCP:  TRACE;

#ARLINGTON AIRPON/A         35  31  85  W10     29.78R
#ARLINGTON HS   N/A         38  30  73  CALM    29.68R
#CELILO DOT     N/A         37  29  72  S2      N/A
#LYLE           N/A         39  35  85  NW1     29.78S
#MOSIER 1S      N/A         32  27  82  CALM    29.73S
#MURDOCK        N/A         37  34  89  CALM    29.74S
#RUFUS DOT      N/A         39  35  85  NW1     N/A
#SMITHVILLE     N/A         39  35  85  N3      29.72S

$$

ORZ510-280710-
NORTH CENTRAL OREGON

CITY            SKY/WX      TMP DP  RH  WIND    PRES   REMARKS
#CHENOWITH 1W   N/A         30  30  100 NW3     N/A
#COW CYN RST AREN/A         30  24  78  S9      N/A
#DUFUR 9E       N/A         32  29  89  SW15    29.83R WCI 22
#GRASS VALLEY 1SN/A         33  28  82  SW13    29.86S WCI 24
#KENT DOT       N/A         N/A N/A N/A N15     N/A
#MAUPIN SCHOOL  N/A         40  29  64  SW2     29.80
#MORO SCHOOL    N/A         33  31  92  CALM    29.79
#SHANIKO 5WSW   N/A         29  20  69  N21     N/A    WCI 16
#SHANIKO 4NW    N/A         28  23  81  SW6     29.67R
#TYGH VALLEY 2NEN/A         36  32  85  N2      29.79S
#WAPANITIA AIRPON/A         34  28  78  SW5     29.81R
#WASCO DOT      N/A         35  30  82  W1      N/A
#WASCO AIRPORT  N/A         34  29  82  SW6     N/A
#WASCO 5NE      N/A         34  31  89  CALM    29.78S
$$

ORZ511-280710-
CENTRAL OREGON

CITY            SKY/WX      TMP DP  RH  WIND    PRES   REMARKS
BEND AIRPORT    PTCLDY      30  23  75  S12     29.74S WCI 20
MADRAS AIRPORT  PTCLDY      32  25  75  SW10    29.76S
PRINEVILLE AP   CLOUDY      32  23  69  MISG    29.75S WCI  6
REDMOND AIRPORT MOCLDY      32  20  61  SW10    29.74S
6HR MIN TEMP:   31; 6HR MAX TEMP:   37;

#ASHWOOD SCHOOL N/A         35  24  64  S7      29.72S
#BEND 1SW       N/A         27  25  92  SW3     N/A
#BEND-AWBREY    N/A         28  25  88  S3      29.85S
#BEND-KIM LN    N/A         28  23  81  S1      29.80S
#CULVER         N/A         32  24  72  S10     29.77R
#CULVER 8W      N/A         31  26  81  CALM    29.77S
#LAKE BILLY CHINN/A         31  N/A N/A SE9     29.88R
#POWELL BUTTE 3EN/A         31  21  66  SW8     N/A
#POWELL BUTTE   N/A         32  18  56  SW10    29.72S
#PRINEVILLE 3N  N/A         31  24  75  CALM    29.85S
#WARM SPRINGS   N/A         37  28  70  CALM    29.73S

$$


ORZ509-280710-
EAST SLOPES OF OREGON CASCADES

CITY            SKY/WX      TMP DP  RH  WIND    PRES   REMARKS
SISTERS AWOS    N/A         30  25  81  CALM    29.72S
#BLUE BOX PASS  N/A         26  N/A N/A NW3     N/A
#CAMP SHERMAN   N/A         30  26  85  CALM    29.88F
#LA PINE 4NW    N/A         25  21  84  CALM    29.96S
#SISTERS 1NW    N/A         31  22  69  S1      N/A
#SISTERS 3N     N/A         29  20  69  N6      29.76R
#SUNRIVER       N/A         26  24  92  S3      29.91F
#TUMALO 3W      N/A         29  23  78  S5      29.73R
#WANOGA BUTTE D N/A         19  17  92  W8      N/A

$$

ORZ044-280710-
LOWER COLUMBIA BASIN...OREGON

CITY            SKY/WX      TMP DP  RH  WIND    PRES   REMARKS
HERMISTON       CLOUDY      38  31  76  SW10    29.72S
6HR MIN TEMP:   36; 6HR MAX TEMP:   43;

#BOARDMAN SCHOOLN/A         39  33  79  SW5     29.74S
#BOARDMAN 8SW   N/A         36  31  82  SW8     29.74S
#ECHO 8SW       N/A         39  30  70  SW9     29.74R
#I-84 EX 198 DOTN/A         37  28  70  N12     N/A    WCI 29
#IONE SCHOOL    N/A         37  21  52  SW7     29.78R
#UMATILLA       N/A         38  30  73  S2      29.68S
$$

ORZ507-280710-
NORTHERN FOOTHILLS OF THE BLUES

CITY            SKY/WX      TMP DP  RH  WIND    PRES   REMARKS
PENDLETON AIRPT MOCLDY      36  28  72  SW13    29.70S WCI 27
6HR MIN TEMP:   32; 6HR MAX TEMP:   38; 6HR PCP:  0.05;

#ADAMS 3WNW     N/A         30  27  88  SW2     29.76S
#ATHENA         N/A         32  29  89  SW2     29.79R
#CAYUSE         N/A         37  28  70  SW13    29.75S WCI 29
#HELIX SCHOOL   N/A         33  30  89  N6      29.76R
#HELIX 3N       N/A         32  30  92  SW12    29.67S WCI 23
#HOLDMAN 5SE    N/A         34  30  85  CALM    29.71S
#HOLDMAN 6E     N/A         32  32  100 SW7     29.57R
#M-F FERNDALE   N/A         38  28  67  CALM    29.71S
#M-F GROVE ELEM N/A         37  27  67  S7      29.70S
#M-FREEWATER 5SEN/A         36  28  72  SW8     29.72S
#PENDLETON DNTN N/A         34  29  82  CALM    29.72S
#PDT AQUATIC CTRN/A         35  29  78  CALM    29.75S
#PDT SUNRIDGE   N/A         34  29  82  CALM    29.74R
#PENDLETON 7NW  N/A         35  29  78  SW3     31.48S
#PILOT ROCK 1S  N/A         36  23  59  S8      29.73S
#PILOT ROCK     N/A         35  27  72  W9      29.74R
#TUTUILLA       N/A         35  29  78  S5      29.76R
#UMAPINE 2E     N/A         39  32  76  W1      29.70S
#WESTON SCHOOL  N/A         33  25  72  W7      29.63R

$$

ORZ508-280710-
SOUTHERN FOOTHILLS OF THE BLUES

CITY            SKY/WX      TMP DP  RH  WIND    PRES   REMARKS
LEXINGTON       MOCLDY      36  32  85  S17G25  29.75R WCI 26
#AJAX           N/A         33  21  61  SE7     29.88S
#CONDON SCHOOL  N/A         29  27  92  SW6     29.68S
#CONDON 5W      N/A         27  25  92  S10     29.65S
#HEPPNER EOC    N/A         33  28  82  SE21G32 29.72R WCI 21
#HEPPNER 4NE    N/A         31  26  81  SW14G25 29.79R WCI 21
#LEXINGTON 2SE  N/A         36  29  75  SW15    29.69R WCI 27
#MIKKALO        N/A         34  28  78  S6      29.84S
#OLEX 4N        N/A         36  31  82  SW13    29.72S WCI 27
#RUGGS 2SW      N/A         30  27  88  SW15    29.82R WCI 19

$$

ORZ502-503-280710-
BLUE MOUNTAINS

CITY            SKY/WX      TMP DP  RH  WIND    PRES   REMARKS
MEACHAM         CLOUDY      28  20  71  CALM    29.65S
6HR MIN TEMP:   27; 6HR MAX TEMP:   29; 6HR PCP:  0.12;

#BATTLE MTN DOT N/A         24  22  92  S6      N/A
#GREENHORN 9SW  N/A         26  24  92  CALM    29.74R
#HEPPNER 15SE   N/A         25  22  88  S2      29.96S
#LADD CYN SMT   N/A         27  25  92  SE9     N/A
#LADD CREEK ODOTN/A         29  25  85  SW3     N/A
#LONG CREEK HS  N/A         28  25  88  CALM    N/A
#N POWDER DOT   N/A         28  25  88  CALM    N/A
#PIKES PEAK     N/A         26  23  88  NW21    27.99S WCI 12
#TROY SCHOOL    N/A         33  31  92  CALM    29.59F
#UKIAH          N/A         28  25  88  CALM    29.72S
#WESTON 4E      N/A         27  26  96  SW8     29.76S
$$

ORZ505-280710-
JOHN DAY BASIN

CITY            SKY/WX      TMP DP  RH  WIND    PRES   REMARKS
JOHN DAY        PTCLDY      27  21  78  CALM    29.72S
#JOHN DAY KJDY  N/A         28  N/A N/A CALM    30.43R
#ANTELOPE 9ESE  N/A         38  25  59  W6      N/A
#DAYVILLE SCHOOLN/A         32  23  69  CALM    29.75R
#MITCHELL       N/A         34  24  66  W1      29.91S
#MITCHELL 8NW   N/A         31  20  63  W7      29.65R
#MONUMENT HS    N/A         31  28  88  NE1     29.73R
#MT. VERNON 5SE N/A         25  20  81  CALM    29.66R
#SPRAY SCHOOL   N/A         33  N/A N/A CALM    N/A
#WINLOCK        N/A         30  27  88  CALM    29.70S
$$

ORZ506-280710-
OCHOCO AND JOHN DAY HIGHLANDS

CITY            SKY/WX      TMP DP  RH  WIND    PRES   REMARKS
#HORSE RIDGE DO N/A         27  17  65  SW6     N/A
#PAULINA SCHOOL N/A         26  24  92  N1      N/A
#PINE MTN OBS   N/A         17  15  92  S6      N/A
#SENECA         N/A         20  N/A N/A CALM    N/A
#SENECA 9NW     N/A         21  19  92  CALM    29.91R
$$

ORZ049-280710-
GRANDE RONDE VALLEY

CITY            SKY/WX      TMP DP  RH  WIND    PRES   REMARKS
LA GRANDE       CLOUDY      28  25  88  E5      29.69S
#COVE           N/A         29  28  96  SE1     29.75F
#COVE SCHOOL    N/A         29  26  88  E2      29.74F
#COVE 6NW       N/A         28  26  92  CALM    29.80S
#ELGIN 3N       N/A         30  22  72  SW9     29.68R
#ELGIN 1E       N/A         31  26  81  S5      N/A
#IMBLER SCHOOL  N/A         29  26  88  SE3     29.67F
#ISLAND CITY 4N N/A         36  35  96  CALM    29.84R
#UNION 1S       N/A         30  25  81  CALM    29.81S
$$

ORZ050-280710-
WALLOWA COUNTY

CITY            SKY/WX      TMP DP  RH  WIND    PRES   REMARKS
JOSEPH AIRPORT  LGT SNOW    27  25  92  CALM    29.64S
#IMNAHA SCHOOL  N/A         38  24  57  SE10    29.71R
#IMNAHA 10S     N/A         29  19  66  CALM    30.11S
#JOSEPH 3N      N/A         26  20  78  N1      29.70R
#JOSEPH 3W      N/A         23  19  84  CALM    29.50R
#LOSTINE        N/A         26  24  92  NE1     29.58S
#LOSTINE 3SE    N/A         26  25  96  CALM    29.70R
#MT HOWARD 8000 N/A         11   8  87  SW9     29.39R
#PROMISE 1S     N/A         26  23  88  E7      29.85R
#WALLOWA SCHOOL N/A         27  25  92  CALM    29.67S



$$



USA.gov is the U.S. government's official web portal to all federal, state and local government web resources and services.